Regional Weather Roundup
Issued by NWS

Home | Current Version | Previous Version | Graphics & Text | Print | Product List | Glossary On
Versions: 1 2 3 4 5 6 7 8 9 10 11 12 13 14 15 16 17 18 19 20 21 22 23 24 25 26 27
000
ASUS45 KPSR 201710
RWRAZ

ARIZONA HOURLY REGIONAL WEATHER ROUNDUP
NATIONAL WEATHER SERVICE PHOENIX AZ
1000 AM MST FRI APR 20 2018

NOTE: FAIR INDICATES FEW OR NO CLOUDS BELOW 12,000 FEET WITH NO
SIGNIFICANT WEATHER AND/OR OBSTRUCTIONS TO VISIBILITY.

AZZ001>003-036-201800-
NORTHWEST ARIZONA

CITY           SKY/WX    TMP DP  RH WIND       PRES   REMARKS
BULLHEAD CITY  SUNNY     68  32  26 CALM      29.98S
KINGMAN        SUNNY     58  31  35 W15G26    30.01R
$$

AZZ004>008-015-016-018-201800-
NORTH CENTRAL ARIZONA

CITY           SKY/WX    TMP DP  RH WIND       PRES   REMARKS
WILLIAMS       MIX PCPN  36  28  75 W10G20    29.98R VSB 1   WCI  28
PRESCOTT       PTSUNNY   50  27  40 W9G20     30.01R
FLAGSTAFF      CLOUDY    36  24  62 SW22      29.98R WCI  25
PAYSON         MOSUNNY   50  23  34 SW8G22    30.01S
PAGE           LGT RAIN  41  38  89 S12       29.90R
$$

AZZ009>014-017-201800-
NORTHEAST ARIZONA

CITY           SKY/WX    TMP DP  RH WIND       PRES   REMARKS
WINSLOW        PTSUNNY   52  23  32 SW17G24   29.96R
SAINT JOHNS    MOSUNNY   50  17  27 W10G26    29.97S
WINDOW ROCK    MOSUNNY   45  13  27 SW20G25   29.95S
SHOW LOW       MOSUNNY   46  18  31 SW21G26   30.01S
$$

AZZ540-542>544-546-548-201800-
GREATER PHOENIX AREA

CITY           SKY/WX    TMP DP  RH WIND       PRES   REMARKS
PHOENIX        MOSUNNY   66  28  24 W10       30.01R
BUCKEYE        SUNNY     64  27  24 CALM      30.03S
GLENDALE       SUNNY     64  30  27 S9G17     30.03R
LUKE AFB       SUNNY     66  29  25 SW12      30.00S
DEER VALLEY    SUNNY     62  28  27 SW10      30.01R
SCOTTSDALE     SUNNY     63  29  27 W6        30.03R
MESA-FALCON    MOSUNNY   63  28  27 SW6       30.03R
MESA-GATEWAY   SUNNY     63  28  27 SW8       30.04
CHANDLER       SUNNY     63  27  25 CALM      30.03R
$$

AZZ539-553-201800-
SOUTHWEST MARICOPA COUNTY AND PINAL COUNTY

CITY           SKY/WX    TMP DP  RH WIND       PRES   REMARKS
CASA GRANDE    SUNNY     62  30  29 W8        30.05R
GILA BEND      FAIR      66  31  26 W16       30.04R
$$

AZZ503-504-507>509-201800-
SOUTHEAST ARIZONA

CITY           SKY/WX    TMP DP  RH WIND       PRES   REMARKS
TUCSON         SUNNY     62  24  23 W9        30.07R
DAVIS-MONTHAN  SUNNY     62  26  25 NW5       30.05
RYAN FIELD     SUNNY     61  27  27 CALM      30.08R
NOGALES        SUNNY     60  14  16 VRB5      30.07R
SIERRA VISTA   SUNNY     59   5  11 W12       30.08
DOUGLAS        SUNNY     62  23  22 NW9       30.05R
SAFFORD        SUNNY     61  21  21 NW14G23   30.00F
$$

AZZ532-201800-
SOUTHWEST ARIZONA

CITY           SKY/WX    TMP DP  RH WIND       PRES   REMARKS
YUMA           SUNNY     70  36  28 NW9       30.04S
$$

CAZ041-043-047-048-061-525>527-560>570-201800-
SOUTHERN CALIFORNIA

CITY           SKY/WX    TMP DP  RH WIND       PRES   REMARKS
DOWNTOWN L.A.  SUNNY     61  47  59 CALM      30.13F
L.A. AIRPORT   MOSUNNY   61  48  62 CALM      30.14F
SAN DIEGO      SUNNY     62  43  49 SW9       30.12S
BURBANK        SUNNY     57  48  72 E7        30.13S
ONTARIO        MOSUNNY   56  43  61 W6        30.13S
RIVERSIDE      MOSUNNY   57  43  59 VRB3      30.13S
PALM SPRINGS   SUNNY     69  35  28 CALM      30.06R
EL CENTRO NAS  SUNNY     70  29  21 VRB6      30.05S
IMPERIAL       SUNNY     70  32  24 N7        30.03S
BLYTHE         SUNNY     69  30  23 VRB3      30.02R
NEEDLES        SUNNY     72  31  22 SE6       29.98F
$$

NVZ020-UTZ003-201800-
SOUTHERN NEVADA-UTAH

CITY           SKY/WX    TMP DP  RH WIND       PRES   REMARKS
LAS VEGAS      MOSUNNY   67  33  28 W10G17    29.97R
SALT LAKE CITY PTSUNNY   60  34  37 N14       29.90R
$$

NMZ009-TXZ055-201800-
NEW MEXICO-WEST TEXAS

CITY           SKY/WX    TMP DP  RH WIND       PRES   REMARKS
ALBUQUERQUE    MOSUNNY   54  18  24 SW13G23   29.93S
EL PASO        MOSUNNY   70  17  13 W23G29    29.92R
$$


........................KEY........................
SKY/WX - SKY CONDITION/WEATHER
TMP    - TEMPERATURE IN FAHRENHEIT
DP     - DEW POINT IN FAHRENHEIT
RH     - RELATIVE HUMIDITY IN PERCENT
WIND   - DIRECTION AND SPEED IN MILES PER HOUR (MPH)
VRB    - VARIABLE WIND DIRECTION
PRES   - MEAN SEA LEVEL PRESSURE IN INCHES OF MERCURY
         F - FALLING PRESSURE   R - RISING PRESSURE
         S - STEADY PRESSURE
VSB    - VISIBILITY IN MILES
HX     - HEAT INDEX IN FAHRENHEIT
WCI    - WIND CHILL INDEX IN FAHRENHEIT
TC     - TEMPERATURE IN CELSIUS WHICH IS ALSO KNOWN AS
         TEMPERATURE IN CENTIGRADE
AFB    - AIR FORCE BASE
         LUKE AFB IS LUKE AIR FORCE BASE
         DAVIS-MONTHAN IS DAVIS-MONTHAN AIR FORCE BASE
NAS    - NAVAL AIR STATION
         EL CENTRO NAS IS EL CENTRO NAVAL AIR STATION
N/A    - NOT AVAILABLE





USA.gov is the U.S. government's official web portal to all federal, state and local government web resources and services.